Location: Joplin
(37.0842°N, 94.5131°W)
Time: 22:20:32
(UTC-05:00)

QB50P2 - Visible Passes

Search period start: 25 May 2019 00:00
Search period end: 04 June 2019 00:00
Orbit: 594 x 612 km, 97.9° (Epoch: 24 May)

Date Brightness Start Highest point End Pass type
(mag) Time Alt. Az. Time Alt. Az. Time Alt. Az.
25 May ? 01:09:02 10° NNE 01:10:28 19° NE 01:10:28 19° NE visible
25 May ? 02:45:44 10° NNW 02:47:16 15° NW 02:47:16 15° NW visible
26 May ? 01:20:47 10° NNE 01:22:34 24° NNE 01:22:34 24° NNE visible
26 May ? 02:58:28 10° NW 02:59:22 12° NW 02:59:22 12° NW visible
27 May ? 01:32:36 10° NNE 01:34:39 28° NNE 01:34:39 28° NNE visible
28 May ? 01:44:31 10° N 01:46:45 31° N 01:46:45 31° N visible
29 May ? 01:56:29 10° N 01:58:50 31° N 01:58:50 31° N visible
30 May ? 02:08:31 10° N 02:10:56 29° NNW 02:10:56 29° NNW visible
31 May ? 00:45:32 10° NE 00:46:12 13° NE 00:46:12 13° NE visible
31 May ? 02:20:39 10° N 02:23:01 25° NW 02:23:01 25° NW visible
01 Jun ? 00:57:00 10° NE 00:58:17 17° NE 00:58:17 17° NE visible
01 Jun ? 02:32:53 10° NNW 02:35:06 20° NW 02:35:06 20° NW visible
02 Jun ? 01:08:38 10° NNE 01:10:22 22° NE 01:10:22 22° NE visible
02 Jun ? 02:45:16 10° NNW 02:47:11 16° NW 02:47:11 16° NW visible
03 Jun ? 01:20:22 10° NNE 01:22:27 27° NE 01:22:27 27° NE visible
03 Jun ? 02:57:58 10° NW 02:59:15 12° WNW 02:59:15 12° WNW visible
